Showing default

YAOGAN-30 F, 43030

Orbit data source: Space-Track

YAOGAN-30 F, 43030 is a payload satellite owned by PLA SSF (CN) in LEO that was launched on Fri, 24 Nov 2017 UTC via a CHANG ZHENG 2C launch vehicle from the Xichang Space Center, China (XSC). Payload-class satellites include a variety of spacecraft equipped with specific instruments for various scientific and technological missions. These include communications satellites like Starlink; space stations such as the ISS; scientific satellites like the Hubble; Earth observation satellites from companies like Planet Labs, Umbra, and HawkEye 360; GPS; miniature CubeSats for education and research; and military/defense satellites.

Loading next visibility...
Identifier
43030, 2017-075C
Orbit
LEO
Country
Flag of CNCN / PRC
Related business
Manufacturer
SECM
Mission
Operational Defense Sigint
Bus & Motor
Unknown
Mass
~500 kg wet, ~500 kg dry
Launch date (UTC)
2017-11-24 (9 years ago)
Launch vehicle
CHANG ZHENG 2C
Launch site
Xichang Space Center, China (XSC)
Object type
Payload
Rocket body
Debris
Shape & HBR
Box + 2 Pan, 0.5 m
Radar Cross Section
0.446 m², Large (>1 m²)

Expand to show TLE details & history
Last TLE update: 23 hours ago

TLE from 23 hours ago
0 YAOGAN-30 F
1 43030U 17075C   26172.50243912  .00001695  00000-0  12665-3 0  9998
2 43030  34.9944 243.9033 0001615  89.0040 271.0853 15.02677714468074
Epoch: 2026-06-21T12:03Z
TLE epoch observation values (Epoch: 2026-06-21T12:03:30.739Z)
Latitude
-0.00005°
Longitude
153.32337°
Altitude
557.539 km
Speed
7.585 km/s
True Right ascension
16h 15m 36s
True Declination
0° 00' 00"
Sunlit
Object was in full shadow at epoch
Visualization orbit readout
Latitude
Unknown
Longitude
Unknown
Altitude
Unknown
Speed
Unknown
Apparent Right ascension
Unknown
Apparent Declination
Unknown
Sunlit
N/A
Visualization observer readout
Local Sidereal Time
21:40:50
Azimuth
Unknown
Elevation
Unknown
Doppler factor
Unknown
Orbital elements
Apogee altitude
562.986 km
Perigee altitude
560.745 km
Semi-major axis
6,940.002 km
Eccentricity
0.00016
Inclination
34.9944°
RAAN
243.9033°
Arg. of periapsis
89.004°
True anomaly
271.0668°
Mean anomaly
271.0853°
Eccentric anomaly
271.07605°
Mean motion
3.75408 °/min
Orbital period
95.9 mins
BSTAR
0.00012665
Loading maneuver chart data...
Computing Atmospheric mass density...
Loading historical data...
Loading historical data...
Loading historical data...
Loading historical data...
Loading historical data...
Loading historical data...
Loading historical data...
Other satellites on launch #75 in the year 2017 (2017-11-24 UTC)

Documentation

Showing up to 5 results
|